Weather History for Batman, Turkey

Change the Weather History Date:

Tuesday, October 23, 2012

  Actual Average (LTCC) Record (LTCC)
Temperature  
Mean Temperature 64 °F -  
Max Temperature 68 °F 71 °F 84 °F (2003)
Min Temperature 59 °F 47 °F 37 °F (2005)
Degree Days  
Heating Degree Days 1    
Growing Degree Days 14 (Base 50)    
Moisture  
Dew Point 59 °F    
Average Humidity 88    
Maximum Humidity 94    
Minimum Humidity 68    
Precipitation  
Precipitation 0.00 in - - ()
Sea Level Pressure  
Sea Level Pressure 30.01 in    
Wind  
Wind Speed 4 mph ()    
Max Wind Speed 8 mph    
Max Gust Speed -    
Visibility 5.9 miles    
Events Rain , Thunderstorm    
Averages and records for this station are not official NWS values.
T = Trace of Precipitation, MM = Missing Value Source: Averaged Metar Reports

Daily Weather History Graph

Daily Weather History Graph

Search for Another Location

Airport:

Trip Planner

Search our weather history database for the weather conditions in past years. The results will help you decide how hot, cold, wet, or windy it might be!

Date:

Astronomy

Oct. 23, 2012 Rise Set
Actual Time 6:32 AM EEST 5:27 PM EEST
Civil Twilight 6:05 AM EEST 5:53 PM EEST
Nautical Twilight 5:34 AM EEST 6:24 PM EEST
Astronomical Twilight 5:03 AM EEST 6:54 PM EEST
Moon 1:52 PM EEST (10/23) 12:06 AM EEST (10/23)
Length of Visible Light 11h 48m
Length of Day
10h 55m
Waxing Gibbous, 63% of the Moon is Illuminated
Oct 23
Waxing Gibbous
Oct 29
Full
Nov 7
Last Quarter
Nov 14
New
Nov 20
First Quarter

Hourly Weather History & Observations

Time (EEST) Temp. Dew Point Humidity Pressure Visibility Wind Dir Wind Speed Gust Speed Precip Events Conditions
12:20 AM 62.6 °F 59.0 °F 88% 30.01 in 5.0 mi WSW 3.5 mph - N/A Rain Light Rain Showers
12:50 AM 62.6 °F 59.0 °F 88% 30.01 in 5.0 mi Variable 2.3 mph - N/A Rain Light Rain Showers
1:20 AM 60.8 °F 59.0 °F 94% 30.01 in 6.2 mi Calm Calm - N/A Rain Light Rain Showers
1:50 AM 60.8 °F 59.0 °F 94% 30.01 in 6.2 mi NE 6.9 mph - N/A Rain Light Rain Showers
2:20 AM 60.8 °F 59.0 °F 94% 29.98 in 6.2 mi NE 8.1 mph - N/A Rain Light Rain Showers
2:50 AM 60.8 °F 59.0 °F 94% 29.98 in 6.2 mi NE 8.1 mph - N/A   Mostly Cloudy
3:20 AM 60.8 °F 59.0 °F 94% 29.98 in 6.2 mi NNE 6.9 mph - N/A Rain Light Rain Showers
3:50 AM 60.8 °F 57.2 °F 88% 29.98 in 6.2 mi NNE 6.9 mph - N/A Rain Light Rain Showers
4:50 AM 60.8 °F 59.0 °F 94% 29.98 in 6.2 mi NE 4.6 mph - N/A Rain Light Rain Showers
5:20 AM 60.8 °F 59.0 °F 94% 29.98 in 6.2 mi Calm Calm - N/A Rain Light Rain Showers
5:50 AM 60.8 °F 59.0 °F 94% 29.95 in 6.2 mi North 3.5 mph - N/A   Mostly Cloudy
6:20 AM 60.8 °F 59.0 °F 94% 29.98 in 6.2 mi Calm Calm - N/A   Mostly Cloudy
6:50 AM 60.8 °F 59.0 °F 94% 29.98 in 6.2 mi Calm Calm - N/A   Mostly Cloudy
7:20 AM 60.8 °F 59.0 °F 94% 29.98 in 4.3 mi South 2.3 mph - N/A   Mostly Cloudy
7:50 AM 60.8 °F 59.0 °F 94% 29.98 in 4.3 mi Calm Calm - N/A   Mostly Cloudy
8:20 AM 60.8 °F 59.0 °F 94% 29.98 in 4.3 mi Calm Calm - N/A   Mostly Cloudy
8:50 AM 62.6 °F 59.0 °F 88% 30.01 in 4.3 mi Calm Calm - N/A   Mostly Cloudy
9:20 AM 62.6 °F 59.0 °F 88% 30.01 in 5.0 mi ENE 3.5 mph - N/A Rain Light Rain Showers
9:50 AM 62.6 °F 59.0 °F 88% 30.01 in 6.2 mi NNE 5.8 mph - N/A   Mostly Cloudy
10:50 AM 64.4 °F 59.0 °F 83% 30.01 in 6.2 mi NNE 4.6 mph - N/A   Mostly Cloudy
11:20 AM 66.2 °F 59.0 °F 78% 30.01 in 6.2 mi NNE 4.6 mph - N/A   Mostly Cloudy
11:50 AM 68.0 °F 59.0 °F 73% 30.01 in 6.2 mi North 5.8 mph - N/A   Mostly Cloudy
12:20 PM 68.0 °F 57.2 °F 68% 30.01 in 6.2 mi Variable 2.3 mph - N/A   Mostly Cloudy
12:50 PM 68.0 °F 57.2 °F 68% 30.01 in 6.2 mi WNW 4.6 mph - N/A   Mostly Cloudy
1:20 PM 66.2 °F 57.2 °F 73% 30.01 in 5.6 mi West 4.6 mph - N/A Rain Light Rain Showers
1:50 PM 62.6 °F 60.8 °F 94% 30.01 in - SW 5.8 mph - N/A Rain , Thunderstorm Thunderstorms and Rain
2:20 PM 62.6 °F 59.0 °F 88% 30.01 in 5.6 mi Variable 1.2 mph - N/A Thunderstorm Thunderstorm
2:50 PM 64.4 °F 59.0 °F 83% 30.01 in 6.2 mi Variable 1.2 mph - N/A Thunderstorm Thunderstorm
3:20 PM 64.4 °F 59.0 °F 83% 30.01 in 6.2 mi NW 3.5 mph - N/A Thunderstorm Thunderstorm
3:50 PM 64.4 °F 57.2 °F 77% 30.01 in 3.7 mi NW 3.5 mph - N/A Rain , Thunderstorm Thunderstorms and Rain
4:20 PM 64.4 °F 60.8 °F 88% 30.01 in 6.2 mi NE 5.8 mph - N/A Rain Light Rain Showers
4:50 PM 62.6 °F 59.0 °F 88% 30.01 in 6.2 mi North 8.1 mph - N/A   Mostly Cloudy
5:20 PM 62.6 °F 59.0 °F 88% 30.01 in 6.2 mi North 5.8 mph - N/A   Mostly Cloudy
5:50 PM 62.6 °F 60.8 °F 94% 30.04 in 6.2 mi North 4.6 mph - N/A   Mostly Cloudy
6:20 PM 62.6 °F 59.0 °F 88% 30.04 in 6.2 mi North 4.6 mph - N/A   Mostly Cloudy
6:50 PM 62.6 °F 59.0 °F 88% 30.04 in 6.2 mi North 5.8 mph - N/A   Mostly Cloudy
7:20 PM 62.6 °F 59.0 °F 88% 30.04 in 6.2 mi North 4.6 mph - N/A   Mostly Cloudy
7:50 PM 62.6 °F 59.0 °F 88% 30.04 in 6.2 mi North 4.6 mph - N/A   Mostly Cloudy
8:20 PM 62.6 °F 59.0 °F 88% 30.04 in 6.2 mi North 4.6 mph - N/A   Mostly Cloudy
8:50 PM 62.6 °F 59.0 °F 88% 30.06 in 6.2 mi NNE 4.6 mph - N/A   Mostly Cloudy
9:20 PM 62.6 °F 60.8 °F 94% 30.06 in 6.2 mi NNE 4.6 mph - N/A   Mostly Cloudy
9:50 PM 60.8 °F 59.0 °F 94% 30.06 in 6.2 mi NE 4.6 mph - N/A   Mostly Cloudy
10:20 PM 60.8 °F 59.0 °F 94% 30.06 in 6.2 mi NNE 4.6 mph - N/A   Mostly Cloudy
10:50 PM 60.8 °F 59.0 °F 94% 30.06 in 6.2 mi NNE 4.6 mph - N/A   Mostly Cloudy
11:20 PM 60.8 °F 59.0 °F 94% 30.06 in 6.2 mi NNE 5.8 mph - N/A   Mostly Cloudy
11:50 PM 59.0 °F 57.2 °F 94% 30.06 in 6.2 mi NNE 5.8 mph - N/A   Mostly Cloudy